[Date Prev][Date Next][Thread Prev][Thread Next] - [Date Index][Thread Index][Author Index]
2 Line ISS Keps & Suitsat 2-8
- Subject: [sarex] 2 Line ISS Keps & Suitsat 2-8
- From: "Dave Larsen PhD" <doc@xxxxxxxxxxx>
- Date: Tue, 7 Feb 2006 19:42:04 -0800
ISS
1 25544U 98067A 06039.04754630 .00012267 00000-0 86242-4 0 3063
2 25544 051.6431 131.6231 0008900 250.2399 106.7655 15.74576017412804
SUITSAT
1 28933U 05035C 06038.34927480 .00031008 00000-0 20786-3 0 81
2 28933 051.6464 135.2136 0007508 243.3671 116.5985 15.74928719 536
----
Via the sarex mailing list at AMSAT.ORG courtesy of AMSAT-NA.
To unsubscribe, send "unsubscribe sarex" to Majordomo@amsat.org
AMSAT Home